Regional Weather Roundup
Issued by NWS

Home | Current Version | Previous Version | Graphics & Text | Print | Product List | Glossary On
Versions: 1 2 3 4 5 6 7 8 9 10 11 12 13 14 15 16 17 18 19 20 21 22 23 24 25 26 27 28 29 30 31 32 33 34 35 36 37 38 39 40 41 42 43 44 45 46 47 48 49 50
000
ASUS45 KBOU 022310
RWRCO

WEATHER ROUNDUP FOR COLORADO
NATIONAL WEATHER SERVICE DENVER/BOULDER CO
500 PM MDT SUN AUG 02 2015

NOTE: "FAIR" INDICATES FEW OR NO CLOUDS BELOW 12000 FEET WITH NO
SIGNIFICANT WEATHER AND/OR OBSTRUCTIONS TO VISIBILITY.

COZ001>005-013-030-031-030000-
...NORTHWEST COLORADO...

CITY           SKY/WX    TMP DP  RH WIND       PRES   REMARKS
CRAIG          CLOUDY    84  47  27 W14       30.08F
HAYDEN         CLOUDY    84  36  17 W3        30.10F
MEEKER         CLOUDY    82  45  27 SW5       30.11F
MOUNT WERNER   NOT AVBL
STEAMBOAT SPGS CLOUDY    84  36  17 W3        30.12F
WALDEN         MOSUNNY   77  32  19 E10G17    30.26S
$$

COZ006>008-011-030000-
...WEST CENTRAL VALLEYS...

CITY           SKY/WX    TMP DP  RH WIND       PRES   REMARKS
GRAND JUNCTION CLOUDY    79  52  38 SW5       30.05S
MONTROSE       CLOUDY    70  57  63 S6        30.15F
EAGLE          CLOUDY    75  43  31 NE12G21   30.17S
RIFLE          CLOUDY    82  50  32 NW12      30.05F
DELTA          CLOUDY    79  54  41 S9        30.11R
NUCLA          CLOUDY    70  59  68 E7        30.19S
$$

COZ017>023-064>068-030000-
...SOUTHWEST COLORADO...

CITY           SKY/WX    TMP DP  RH WIND       PRES   REMARKS
DURANGO        CLOUDY    78  51  38 W13       30.16F
CORTEZ         SUNNY     71  60  68 NW12      30.15F
PAGOSA SPRINGS CLOUDY    63  53  70 NW5       30.29R
TELLURIDE      CLOUDY    56  53  88 CALM      30.39S
WOLF CREEK PAS NOT AVBL
$$

COZ009-010-012-014-032>034-037-058>063-030000-
...CENTRAL COLORADO...

CITY           SKY/WX    TMP DP  RH WIND       PRES   REMARKS
ASPEN          TSTM      57  50  77 SE9       30.35R
BUENA VISTA    CLOUDY    69  42  37 NE9G22    30.29R
COPPER MTN     CLOUDY    54  37  54 SE5       30.62S
BERTHOUD PASS  CLOUDY    46  36  66 E15G21    30.66F
COTTONWOOD PAS CLOUDY    64  41  42 CALM      30.45F
GUNNISON       CLOUDY    63  54  72 S6        30.30F
KREMMLING      CLOUDY    73  37  27 E20G29    30.25R
LEADVILLE      CLOUDY    52  44  74 N6        30.46S
MONARCH PASS   HVY RAIN  46  43  87 NE10G16   30.69R
SALIDA         CLOUDY    71  52  49 NW5       30.34R
SUNLIGHT       CLOUDY    61  46  59 CALM      30.51F THUNDER
WILKERSON PASS CLOUDY    54  36  50 NE3       30.59S
$$

COZ069>075-030000-
...SAN LUIS VALLEY/SANGRE DE CRISTO MOUNTAINS...

CITY           SKY/WX    TMP DP  RH WIND       PRES   REMARKS
ALAMOSA        LGT RAIN  66  49  54 E16G24    30.27R
LA VETA PASS   CLOUDY    55  43  62 MISG      30.47R
SAGUACHE       RAIN      59  52  77 E23G33    30.29R
$$

COZ035-036-038>040-030000-
...NORTHERN COLORADO FRONT RANGE...

CITY           SKY/WX    TMP DP  RH WIND       PRES   REMARKS
DENVER INTL AP CLOUDY    77  48  35 SW26G35   30.09R THUNDER
DMNS CITY PARK   N/A     72  48  43 SE13G35   30.12F
AURORA         LGT RAIN  67  54  61 S20G36    30.16R
FRONT RANGE AP PTSUNNY   75  48  38 S21G28    30.11R
ERIE MUNI ARPT CLOUDY    76  51  41 S13       30.08F
BOULDER MUN AP DRIZZLE   79  46  31 S10G16    30.09R
CENTENNIAL     TSTM      68  54  60 NW6       30.20R
BROOMFIELD     DRIZZLE   73  54  49 SE13      30.15S
FORT COLLINS   CLOUDY    90  52  27 S7        30.02F
LONGMONT       CLOUDY    84  47  27 S13G18    30.08S
$$

COZ041-046-047-076>085-087-088-030000-
...PIKES PEAK/PALMER DIVIDE AND SOUTHERN FOOTHILLS...

CITY           SKY/WX    TMP DP  RH WIND       PRES   REMARKS
COLO. SPRINGS  CLOUDY    84  43  23 E7        30.14F
A. F. ACADEMY  CLOUDY    82  43  25 S6        30.17S
ELLICOTT       CLOUDY   N/A N/A N/A SE6       30.13S
FALCON         CLOUDY    78  44  30 SE5       30.22S
FORT CARSON    PTSUNNY   86  43  22 E7        30.10F
LIMON          MOSUNNY   88  40  18 SE13G20   30.08S
MONUMENT HILL  NOT AVBL
TRINIDAD       TSTM      65  59  81 SW22      30.15R
$$

COZ042>045-048>051-090-091-030000-
...NORTHEAST COLORADO...

CITY           SKY/WX    TMP DP  RH WIND       PRES   REMARKS
GREELEY ARPT   CLOUDY    91  54  27 NE3       30.01F
AKRON          MOSUNNY   90  45  21 SE10      30.02F
BURLINGTON     MOSUNNY   90  49  24 S12       30.00F
WRAY           CLOUDY    97  42  14 E7        29.95S
STERLING       MOSUNNY   90  50  25 E10G16    29.96R
HOLYOKE        CLOUDY    95  37  13 N8        29.96S
FORT MORGAN    MOSUNNY   89  43  20 SE7       30.00S
$$

COZ086-089-092>099-030000-
...SOUTHEAST COLORADO...

CITY           SKY/WX    TMP DP  RH WIND       PRES   REMARKS
PUEBLO         PTSUNNY   93  40  15 SE14      29.99F
LA JUNTA       MOSUNNY   95  38  13 E17G23    29.97S
LAMAR          MOSUNNY   95  48  20 E13G26    29.93S
SPRINGFIELD      N/A     88  50  27 E15G21    29.99F
$$



USA.gov is the U.S. government's official web portal to all federal, state and local government web resources and services.